This is the latest recevied weather packets stored in our database for station/object N9XRG. If no packets are shown the sender has not sent any weather packets the latest 10 day(s).
| Time | Temp. | Humidity | Pressure | Rain* | Wind** | Luminosity | Snow |
|---|---|---|---|---|---|---|---|
| 1778156659 | 6.67° C | 68% | 1015.5 hPa | 0 mm | - | 79 W/m² | - |
| 1778156355 | 6.11° C | 68% | 1015 hPa | 0 mm | - | 80 W/m² | - |
| 1778156051 | 5.56° C | 72% | 1015.5 hPa | 0 mm | - | 79 W/m² | - |
| 1778155748 | 5.56° C | 71% | 1015.4 hPa | 0 mm | - | 50 W/m² | - |
| 1778155444 | 5.56° C | 72% | 1015.2 hPa | 0 mm | - | 59 W/m² | - |
| 1778155140 | 5.56° C | 72% | 1015.2 hPa | 0 mm | - | 70 W/m² | - |
| 1778154836 | 5° C | 72% | 1015 hPa | 0 mm | - | 56 W/m² | - |
| 1778154532 | 5° C | 72% | 1015.3 hPa | 0 mm | - | 61 W/m² | - |
| 1778154229 | 5° C | 72% | 1015.1 hPa | 0 mm | - | 60 W/m² | - |
| 1778153927 | 5° C | 73% | 1015.1 hPa | 0 mm | - | 56 W/m² | - |
| 1778153623 | 5° C | 73% | 1015 hPa | 0 mm | - | 52 W/m² | - |
| 1778153321 | 5° C | 73% | 1015 hPa | 0 mm | - | 45 W/m² | - |
| 1778153018 | 5° C | 73% | 1015.1 hPa | 0 mm | - | 46 W/m² | - |
| 1778152716 | 5° C | 74% | 1014.7 hPa | 0 mm | - | 43 W/m² | - |
| 1778152412 | 4.44° C | 73% | 1014.8 hPa | 0 mm | - | 33 W/m² | - |
| 1778152108 | 4.44° C | 74% | 1014.9 hPa | 0 mm | - | 22 W/m² | - |
| 1778151805 | 4.44° C | 74% | 1014.6 hPa | 0 mm | - | 21 W/m² | - |
| 1778151502 | 4.44° C | 75% | 1014.8 hPa | 0 mm | - | 21 W/m² | - |
| 1778151198 | 4.44° C | 74% | 1014.6 hPa | 0 mm | - | 12 W/m² | - |
| 1778150895 | 4.44° C | 74% | 1014.6 hPa | 0 mm | - | 9 W/m² | - |
| 1778150591 | 4.44° C | 74% | 1014.5 hPa | 0 mm | - | 6 W/m² | - |
| 1778150288 | 4.44° C | 75% | 1014.6 hPa | 0 mm | - | 4 W/m² | - |
| 1778149984 | 4.44° C | 74% | 1014.6 hPa | 0 mm | - | 2 W/m² | - |
| 1778149681 | 4.44° C | 74% | 1014.5 hPa | 0 mm | - | 1 W/m² | - |
| 1778149377 | 4.44° C | 73% | 1014.5 hPa | 0 mm | - | 1 W/m² | - |
* Rain latest hour (hover to see other rain measurements)
** Current wind speed in m/s (hover to see current wind gust speed)